Wind_Speed
16 16 14 12 12 11 10 11 12 12 12 12 11 11 11 12 11 11 11 10 10 10 11 11 10 11 11 11 11 10 10 8 8 7 6 5 5 4 3 2 2 2
17 17 15 12 12 13 12 13 16 16 16 15 14 13 13 13 13 12 12 12 12 12 12 11 11 10 10 10 10 9 9 8 7 7 7 6 5 5 5 4 4 3
20 19 18 14 13 14 15 18 19 18 18 17 16 15 15 14 15 14 14 14 14 14 13 12 12 11 10 10 10 9 9 9 9 9 9 8 7 7 7 6 6 5
23 20 21 19 14 14 17 21 22 21 20 19 18 17 16 16 16 15 15 15 15 14 14 13 12 12 12 11 11 10 10 10 10 10 9 9 9 8 7 7 6 6
26 22 23 25 18 15 19 23 23 22 21 20 19 18 17 17 16 16 16 15 15 15 14 13 13 12 12 12 12 11 10 10 9 9 8 8 8 7 6 5 5 5
30 26 26 29 25 17 18 23 24 23 21 20 19 18 17 17 16 15 15 14 14 14 14 14 13 12 12 11 11 10 10 9 8 7 6 6 5 4 4 3 2 2
31 27 26 30 30 23 18 21 23 22 21 19 18 17 17 16 14 14 13 12 12 12 12 12 12 12 11 11 10 10 9 9 8 7 6 5 3 2 1 1 0 1
30 27 27 30 32 28 21 20 21 21 20 19 18 17 15 14 13 12 12 12 11 10 10 10 11 11 11 11 10 9 9 8 8 7 6 5 4 3 2 2 2 3
29 29 28 29 32 32 26 22 21 20 20 20 19 17 15 14 13 11 11 11 10 10 10 10 10 10 10 9 8 7 6 6 6 6 6 5 4 3 2 2 3 4
30 31 29 29 33 35 31 26 24 23 22 21 20 20 18 16 15 14 12 12 11 10 10 10 9 9 8 7 5 4 4 3 4 3 3 4 3 2 2 2 3 4
30 30 30 30 32 36 36 32 29 26 24 25 25 24 23 21 19 17 16 14 12 11 10 10 9 8 7 5 3 4 5 6 6 6 5 5 5 4 4 5 5 5
30 29 31 29 30 36 40 38 34 27 23 25 28 27 26 24 22 21 20 18 16 14 13 11 10 8 7 7 6 7 9 11 11 10 9 9 10 9 8 8 9 9
28 28 30 31 32 36 38 36 34 28 26 29 30 29 30 29 25 25 25 23 21 18 16 14 12 11 11 10 10 11 14 15 15 14 14 14 14 13 13 13 12 12
27 26 27 29 31 33 32 28 25 22 23 28 30 29 30 28 25 25 25 25 22 19 16 15 14 15 14 14 13 15 17 17 16 15 15 16 17 16 16 17 16 16
26 25 23 22 22 23 24 25 24 20 18 21 26 27 26 24 25 27 27 26 23 18 16 15 15 16 17 17 16 17 18 17 16 17 18 19 19 19 19 18 18 19
25 26 25 23 22 22 25 28 28 25 21 22 26 29 28 27 27 27 28 27 24 21 20 19 17 18 19 19 20 21 21 19 18 19 20 20 20 19 19 19 19 20
23 26 27 26 25 27 29 29 26 22 20 22 25 27 29 30 27 25 26 26 24 22 21 20 19 20 22 23 23 23 21 19 19 20 21 20 20 20 20 19 19 19
19 21 23 23 24 26 26 25 24 22 22 22 23 23 25 26 24 22 23 23 21 19 19 19 19 21 21 22 21 20 19 19 20 21 21 21 21 21 21 20 19 19
15 16 18 21 23 23 23 23 22 20 20 20 19 19 21 22 21 20 20 19 17 16 16 17 18 18 17 17 18 19 20 21 21 22 23 23 23 22 21 20 19 19
15 16 17 20 21 20 19 19 18 16 16 15 14 16 18 19 18 18 17 16 15 15 15 15 14 13 14 15 17 18 20 21 22 22 23 23 23 22 21 19 18 17
12 13 16 18 18 17 16 15 15 14 14 13 13 14 15 15 14 14 14 14 14 14 14 13 13 13 14 15 15 16 17 18 18 18 18 19 19 19 18 18 16 15
11 12 13 14 15 15 15 15 15 14 14 14 14 14 14 14 13 13 13 13 13 13 14 14 14 14 13 13 12 12 13 13 12 12 13 14 15 15 15 15 13 13
12 13 13 14 15 15 15 15 15 15 15 15 15 14 14 14 13 13 13 12 12 12 12 12 11 11 10 10 10 11 11 12 11 11 12 12 12 12 12 11 10 11
13 15 15 15 15 15 14 14 14 14 15 15 15 14 13 13 13 12 11 10 9 8 8 8 8 9 10 12 12 13 13 14 14 14 14 14 13 12 11 10 9 10
14 15 16 16 17 16 14 13 12 12 12 13 14 13 13 12 11 10 9 8 7 7 8 8 9 11 12 14 14 14 15 15 15 16 15 15 13 12 11 10 11 11
16 18 17 16 15 15 14 14 13 11 10 10 11 11 10 10 9 9 9 9 9 10 10 10 11 13 14 15 15 15 15 15 15 15 15 14 13 11 10 10 12 13
Wind_Direction
218 218 206 188 185 186 184 178 166 155 151 151 154 151 147 148 147 146 146 143 139 135 132 132 133 130 124 120 117 116 118 124 131 133 135 142 148 150 145 134 118 103
215 221 214 194 187 184 179 170 159 150 145 144 146 146 144 142 141 142 141 139 137 136 134 134 134 132 127 120 116 114 114 117 121 119 117 122 125 120 115 110 102 94
212 221 223 209 194 187 178 168 160 153 150 150 149 147 145 141 136 136 135 133 133 132 132 132 131 129 125 119 115 113 111 110 110 108 106 107 104 100 101 100 96 88
212 218 228 222 205 192 184 173 166 163 160 157 156 153 150 148 143 137 133 130 129 128 128 129 128 126 122 120 117 114 110 107 104 103 103 103 102 98 94 91 88 84
211 214 226 227 217 201 193 182 173 170 168 164 165 165 162 159 155 148 141 136 132 130 129 128 126 124 123 121 119 117 114 109 103 101 99 97 97 99 94 87 82 80
210 215 225 228 222 211 202 194 184 178 176 173 172 173 171 171 169 163 157 150 145 143 140 138 136 133 131 129 128 128 126 125 122 117 112 104 96 95 94 93 85 76
212 221 227 228 225 219 212 207 199 191 187 185 183 181 178 177 176 174 172 168 161 157 154 151 150 148 147 145 144 145 143 142 143 143 141 138 135 138 144 135 85 315
215 224 229 228 226 223 219 215 211 206 203 203 199 194 189 184 179 177 179 181 177 171 165 161 158 157 157 156 156 159 160 159 162 165 167 168 170 190 226 259 288 302
220 224 229 228 226 226 225 220 215 213 213 216 215 209 205 201 195 188 183 184 184 179 172 168 163 160 159 159 161 166 170 173 176 176 176 176 174 186 214 257 291 306
222 222 225 226 227 227 227 225 219 213 212 216 219 218 217 215 211 205 198 193 190 187 183 179 178 178 178 176 178 192 210 216 213 209 203 196 189 196 223 257 283 298
224 223 223 228 234 230 227 229 224 218 217 217 218 221 221 220 219 217 212 205 199 200 206 207 209 215 216 216 229 251 263 265 258 254 259 256 252 255 264 273 281 289
223 225 224 230 240 233 226 227 224 221 227 228 224 225 225 224 223 222 220 215 209 209 219 225 232 246 257 264 274 285 290 287 272 260 260 263 265 268 272 277 283 286
224 229 227 229 235 230 224 225 226 225 231 235 232 230 230 227 226 227 225 222 220 218 221 228 239 254 267 274 280 294 300 294 281 267 261 261 267 269 268 272 279 282
228 228 224 222 224 222 219 224 231 231 233 238 237 235 234 233 235 239 237 231 231 233 238 244 249 256 264 271 279 295 303 298 287 278 273 273 277 279 273 270 273 276
218 213 210 210 213 217 221 228 238 244 248 251 243 236 236 237 238 245 246 237 234 243 251 251 252 259 267 268 272 286 295 292 287 286 287 285 284 284 280 275 273 273
215 214 216 220 222 230 241 245 246 248 251 250 241 233 231 232 235 244 246 238 237 246 250 248 251 259 262 259 264 277 283 281 280 283 284 283 282 282 281 278 275 274
225 226 231 232 229 236 246 247 244 242 239 236 232 228 227 229 237 245 242 237 243 252 252 251 254 256 256 257 264 272 274 273 274 276 276 278 280 281 282 280 276 274
233 236 240 237 234 238 243 243 241 239 236 233 232 231 230 234 241 241 236 239 249 254 251 251 254 255 257 262 266 269 270 273 278 280 282 283 282 282 283 282 280 276
231 234 237 235 234 236 237 239 239 234 231 233 234 233 233 234 235 236 236 241 246 247 246 248 252 256 260 265 268 270 274 279 282 285 287 287 285 284 282 282 282 278
223 226 230 230 230 231 230 229 224 219 219 222 220 220 222 223 225 229 233 235 237 240 243 246 250 255 260 265 271 275 279 283 286 288 289 288 288 286 284 284 283 279
205 213 219 221 218 216 212 206 203 203 205 205 203 205 208 212 217 222 224 226 230 235 240 246 252 258 265 272 279 284 289 292 295 295 294 294 293 291 289 288 285 281
190 197 202 200 195 193 194 195 197 198 197 198 199 201 204 208 211 215 219 225 232 240 248 255 260 266 274 283 290 295 300 306 310 309 307 305 303 299 295 292 289 283
193 199 199 195 192 192 193 195 198 201 203 206 207 208 213 217 221 226 231 236 242 247 254 259 265 274 285 297 304 305 309 317 322 324 325 323 320 315 309 304 299 290
198 201 203 203 200 197 198 206 214 218 218 218 218 221 224 227 230 233 235 238 242 249 258 268 278 289 298 306 311 313 316 321 324 328 333 332 329 326 321 318 310 296
204 205 206 209 209 208 213 219 221 218 217 218 220 222 224 225 227 228 232 240 250 260 271 279 285 292 297 302 307 311 315 319 323 328 333 333 329 322 317 313 304 291
210 212 213 215 218 223 226 221 214 211 212 215 215 215 220 224 228 235 244 253 260 266 271 277 282 287 290 294 299 304 307 311 316 322 326 326 322 315 305 297 288 281
Height
1524 1525 1526 1526 1527 1528 1528 1529 1530 1530 1530 1530 1531 1531 1532 1532 1533 1533 1534 1535 1535 1535 1536 1537 1537 1538 1538 1538 1539 1539 1540 1541 1541 1542 1543 1543 1544 1544 1544 1545 1545 1545
1525 1526 1526 1527 1527 1528 1529 1530 1530 1530 1530 1531 1531 1532 1533 1533 1533 1534 1535 1535 1535 1536 1536 1537 1538 1538 1539 1539 1540 1540 1540 1541 1542 1542 1543 1544 1544 1545 1545 1545 1545 1546
1524 1525 1526 1527 1527 1528 1528 1529 1530 1530 1530 1531 1531 1532 1533 1534 1534 1534 1535 1535 1535 1536 1536 1537 1538 1539 1539 1540 1540 1541 1541 1542 1542 1543 1544 1544 1545 1545 1545 1546 1546 1546
1523 1525 1526 1527 1528 1528 1529 1529 1529 1529 1530 1530 1531 1532 1533 1534 1534 1535 1535 1536 1536 1536 1537 1538 1538 1539 1540 1540 1541 1541 1542 1542 1543 1543 1544 1545 1546 1546 1546 1547 1547 1547
1522 1524 1524 1526 1528 1528 1529 1528 1528 1529 1529 1530 1531 1532 1532 1533 1534 1535 1536 1536 1536 1537 1538 1538 1539 1539 1540 1540 1541 1541 1542 1542 1543 1544 1545 1545 1546 1547 1547 1547 1548 1548
1519 1522 1523 1525 1527 1528 1529 1528 1528 1529 1529 1530 1531 1532 1533 1534 1535 1536 1536 1537 1537 1537 1538 1538 1539 1540 1540 1540 1541 1541 1542 1542 1543 1544 1544 1545 1546 1547 1547 1548 1548 1548
1517 1520 1521 1523 1526 1527 1529 1529 1529 1529 1530 1531 1532 1533 1534 1535 1536 1537 1537 1538 1538 1538 1538 1539 1539 1540 1540 1541 1541 1541 1542 1542 1543 1543 1544 1545 1545 1546 1547 1548 1548 1548
1516 1519 1520 1522 1525 1527 1528 1529 1529 1530 1531 1532 1532 1533 1535 1535 1536 1537 1538 1539 1539 1539 1539 1539 1540 1540 1541 1541 1541 1542 1542 1542 1543 1543 1543 1544 1545 1545 1546 1547 1547 1548
1514 1517 1520 1522 1524 1526 1527 1528 1528 1530 1531 1532 1533 1534 1535 1536 1537 1538 1538 1539 1539 1540 1540 1540 1540 1541 1541 1542 1542 1542 1543 1543 1543 1543 1543 1543 1544 1544 1545 1546 1546 1547
1512 1514 1517 1519 1521 1523 1525 1526 1526 1527 1529 1530 1532 1533 1534 1535 1536 1537 1538 1539 1540 1540 1540 1540 1541 1541 1541 1542 1542 1543 1543 1543 1544 1544 1543 1543 1543 1543 1544 1545 1545 1546
1511 1513 1514 1516 1518 1521 1523 1524 1525 1526 1528 1529 1530 1531 1532 1533 1534 1536 1537 1539 1540 1540 1541 1541 1541 1541 1541 1541 1542 1542 1542 1543 1543 1544 1544 1544 1544 1543 1543 1544 1544 1545
1510 1511 1512 1513 1516 1519 1521 1521 1522 1525 1528 1529 1530 1531 1531 1532 1533 1534 1536 1537 1539 1539 1540 1541 1541 1541 1541 1541 1541 1541 1542 1542 1542 1542 1543 1543 1543 1543 1543 1543 1543 1544
1507 1509 1509 1510 1513 1516 1518 1519 1521 1524 1526 1527 1529 1530 1531 1531 1532 1533 1534 1536 1538 1538 1539 1540 1541 1541 1541 1541 1541 1541 1541 1541 1541 1541 1541 1541 1542 1542 1542 1542 1542 1542
1504 1506 1508 1509 1511 1513 1515 1518 1520 1522 1524 1525 1527 1530 1531 1532 1533 1534 1535 1537 1538 1539 1539 1539 1539 1540 1540 1540 1540 1540 1540 1540 1540 1540 1540 1540 1540 1540 1540 1540 1540 1540
1501 1503 1507 1510 1512 1513 1514 1516 1517 1521 1524 1526 1527 1529 1531 1531 1533 1534 1535 1537 1538 1539 1539 1538 1537 1538 1539 1539 1539 1539 1539 1539 1538 1538 1538 1538 1538 1538 1538 1538 1538 1538
1502 1502 1505 1509 1512 1514 1514 1514 1515 1518 1522 1523 1524 1525 1527 1529 1531 1532 1534 1536 1536 1536 1537 1536 1536 1536 1537 1537 1537 1537 1537 1537 1536 1536 1536 1535 1535 1535 1535 1535 1536 1536
1502 1503 1503 1506 1509 1512 1512 1512 1514 1516 1518 1519 1520 1522 1524 1526 1528 1530 1531 1533 1534 1534 1534 1534 1534 1535 1535 1535 1536 1535 1535 1534 1534 1533 1533 1533 1533 1532 1532 1532 1532 1533
1501 1502 1503 1505 1507 1509 1510 1511 1513 1514 1515 1517 1519 1520 1522 1524 1526 1527 1528 1530 1531 1531 1532 1532 1533 1533 1534 1534 1534 1533 1532 1532 1531 1531 1531 1531 1530 1530 1530 1529 1529 1529
1501 1502 1502 1504 1506 1507 1509 1510 1511 1512 1514 1515 1517 1518 1520 1521 1523 1525 1526 1528 1529 1529 1529 1530 1531 1531 1532 1532 1531 1531 1530 1530 1529 1529 1528 1528 1527 1527 1527 1527 1526 1526
1501 1501 1502 1503 1505 1506 1508 1509 1510 1512 1513 1514 1516 1517 1518 1520 1522 1523 1525 1526 1526 1527 1528 1528 1529 1529 1529 1529 1529 1529 1528 1527 1527 1527 1526 1525 1525 1524 1524 1524 1524 1524
1500 1501 1501 1502 1504 1505 1507 1508 1510 1512 1513 1514 1515 1516 1518 1519 1521 1522 1523 1524 1525 1525 1526 1527 1527 1527 1527 1527 1527 1527 1526 1525 1525 1524 1524 1523 1522 1522 1521 1521 1521 1521
1500 1501 1501 1502 1504 1505 1507 1508 1510 1512 1513 1514 1515 1516 1517 1518 1519 1520 1521 1522 1523 1524 1524 1525 1525 1525 1525 1525 1525 1525 1524 1523 1523 1522 1522 1521 1521 1520 1519 1519 1519 1519
1501 1501 1502 1503 1504 1506 1507 1509 1510 1511 1512 1513 1514 1515 1516 1517 1518 1519 1520 1520 1521 1521 1522 1523 1523 1523 1523 1523 1523 1523 1523 1522 1522 1521 1520 1520 1519 1519 1518 1518 1518 1518
1501 1501 1502 1503 1504 1506 1507 1508 1509 1510 1511 1512 1513 1513 1514 1515 1516 1517 1518 1519 1519 1519 1520 1520 1521 1521 1521 1521 1521 1521 1521 1520 1520 1520 1519 1518 1518 1517 1517 1517 1517 1518
1501 1501 1502 1503 1504 1505 1506 1507 1508 1509 1510 1510 1511 1512 1513 1514 1515 1516 1517 1517 1518 1518 1518 1518 1519 1519 1519 1520 1520 1519 1519 1519 1518 1518 1518 1517 1517 1516 1516 1516 1517 1517
1500 1501 1502 1503 1504 1504 1505 1506 1507 1508 1508 1509 1510 1511 1512 1513 1514 1515 1516 1516 1517 1517 1517 1517 1517 1518 1518 1518 1518 1517 1517 1517 1516 1516 1516 1516 1516 1516 1516 1516 1516 1516